Location: Bremen
(53.0793°N, 8.8017°E)
Time: 09:03:33
(UTC+01:00)

Transit 2A - Pass Details

Date: 01 December 2021
Orbit: 591 x 966 km, 66.7° (Epoch: 26 January)

Event Time Altitude Azimuth Distance (km) Brightness Sun altitude
Exits shadow 06:37:43 12° 323° (NW) 2,503 8.2 -13.8°
Maximum altitude 06:42:20 26° 15° (NNE) 1,789 7.9 -13.2°
Drops below altitude 10° 06:47:38 10° 71° (ENE) 2,709 9.6 -12.4°
Sets 06:50:39 0° 84° (E) 3,637 10.7 -12.0°
